Location: Hamburg
(53.5554°N, 9.9941°E)
Time: 02:32:22
(UTC+02:00)

ISS - Pass Details

Date: 15 May 2021
Orbit: 417 x 422 km, 51.6° (Epoch: 15 June)

Event Time Altitude Azimuth Distance (km) Brightness Sun altitude
Rises 23:37:43 0° 240° (WSW) 2,362 0.0 -14.3°
Reaches altitude 10° 23:39:52 10° 233° (SW) 1,501 -1.1 -14.4°
Maximum altitude 23:43:04 42° 162° (SSE) 615 -3.4 -14.6°
Drops below altitude 10° 23:46:17 10° 90° (E) 1,508 -1.2 -14.8°
Sets 23:48:27 0° 83° (E) 2,375 -0.1 -14.9°
